TimeCDT,TemperatureF,Dew PointF,Humidity,Sea Level PressureIn,VisibilityMPH,Wind Direction,Wind SpeedMPH,Gust SpeedMPH,PrecipitationIn,Events,Conditions,WindDirDegrees,DateUTC
12:15 AM,73.4,69.8,88,30.12,10.0,ENE,3.5,-,N/A,,Clear,70,2013-08-25 05:15:00
12:35 AM,73.4,69.8,88,30.11,10.0,NE,3.5,-,N/A,,Clear,50,2013-08-25 05:35:00
12:55 AM,73.4,69.8,88,30.11,10.0,NE,3.5,-,N/A,,Clear,40,2013-08-25 05:55:00
1:15 AM,73.4,69.8,88,30.11,10.0,NNE,3.5,-,N/A,,Clear,30,2013-08-25 06:15:00
1:35 AM,73.4,69.8,88,30.11,10.0,NE,3.5,-,N/A,,Clear,40,2013-08-25 06:35:00
1:55 AM,73.4,69.8,88,30.11,10.0,ENE,3.5,-,N/A,,Clear,60,2013-08-25 06:55:00
2:15 AM,73.4,69.8,88,30.11,10.0,ENE,4.6,-,N/A,,Clear,70,2013-08-25 07:15:00
2:35 AM,73.4,69.8,88,30.12,10.0,ENE,3.5,-,N/A,,Clear,70,2013-08-25 07:35:00
2:55 AM,73.4,69.8,88,30.11,10.0,ENE,4.6,-,N/A,,Clear,70,2013-08-25 07:55:00
3:15 AM,73.4,69.8,88,30.11,10.0,ENE,3.5,-,N/A,,Clear,70,2013-08-25 08:15:00
3:35 AM,73.4,69.8,88,30.11,10.0,NE,3.5,-,N/A,,Clear,50,2013-08-25 08:35:00
3:55 AM,73.4,69.8,88,30.10,10.0,ENE,4.6,-,N/A,,Clear,60,2013-08-25 08:55:00
4:15 AM,73.4,69.8,88,30.11,10.0,Calm,Calm,-,N/A,,Clear,0,2013-08-25 09:15:00
4:35 AM,73.4,69.8,88,30.10,10.0,NE,3.5,-,N/A,,Clear,50,2013-08-25 09:35:00
4:55 AM,73.4,69.8,88,30.11,10.0,Calm,Calm,-,N/A,,Clear,0,2013-08-25 09:55:00
5:15 AM,73.4,69.8,88,30.12,10.0,Calm,Calm,-,N/A,,Clear,0,2013-08-25 10:15:00
5:35 AM,73.4,69.8,88,30.11,10.0,Calm,Calm,-,N/A,,Clear,0,2013-08-25 10:35:00
5:55 AM,73.4,69.8,88,30.12,10.0,ENE,3.5,-,N/A,,Clear,60,2013-08-25 10:55:00
6:15 AM,73.4,69.8,88,30.13,10.0,ENE,5.8,-,N/A,,Clear,60,2013-08-25 11:15:00
6:35 AM,73.4,69.8,88,30.13,10.0,ENE,4.6,-,N/A,,Clear,60,2013-08-25 11:35:00
6:55 AM,73.4,69.8,88,30.13,10.0,ENE,4.6,-,N/A,,Clear,60,2013-08-25 11:55:00
7:15 AM,73.4,69.8,88,30.13,10.0,ENE,5.8,-,N/A,,Scattered Clouds,60,2013-08-25 12:15:00
7:35 AM,75.2,69.8,83,30.14,10.0,ENE,5.8,-,N/A,,Scattered Clouds,70,2013-08-25 12:35:00
7:55 AM,75.2,69.8,83,30.14,10.0,ENE,4.6,-,N/A,,Clear,70,2013-08-25 12:55:00
8:15 AM,77.0,69.8,78,30.15,10.0,East,6.9,-,N/A,,Clear,80,2013-08-25 13:15:00
8:35 AM,77.0,69.8,78,30.16,10.0,ENE,9.2,-,N/A,,Clear,70,2013-08-25 13:35:00
8:55 AM,78.8,71.6,78,30.17,10.0,East,6.9,-,N/A,,Scattered Clouds,80,2013-08-25 13:55:00
9:15 AM,78.8,71.6,78,30.17,10.0,East,6.9,-,N/A,,Scattered Clouds,80,2013-08-25 14:15:00
9:35 AM,80.6,71.6,74,30.17,10.0,East,9.2,-,N/A,,Scattered Clouds,80,2013-08-25 14:35:00
9:55 AM,82.4,71.6,70,30.18,10.0,ESE,13.8,18.4,N/A,,Scattered Clouds,110,2013-08-25 14:55:00
10:35 AM,82.4,71.6,70,30.18,10.0,ESE,4.6,-,N/A,,Scattered Clouds,110,2013-08-25 15:35:00
10:55 AM,82.4,69.8,66,30.18,10.0,East,11.5,-,N/A,,Mostly Cloudy,100,2013-08-25 15:55:00
11:15 AM,82.4,71.6,70,30.19,10.0,East,4.6,-,N/A,,Scattered Clouds,90,2013-08-25 16:15:00
11:35 AM,86.0,69.8,58,30.18,10.0,East,10.4,16.1,N/A,,Scattered Clouds,100,2013-08-25 16:35:00
11:55 AM,86.0,69.8,58,30.18,10.0,ESE,11.5,16.1,N/A,,Scattered Clouds,110,2013-08-25 16:55:00
12:15 PM,84.2,69.8,62,30.18,10.0,East,9.2,-,N/A,,Scattered Clouds,80,2013-08-25 17:15:00
12:35 PM,86.0,69.8,58,30.17,10.0,ESE,11.5,-,N/A,,Scattered Clouds,110,2013-08-25 17:35:00
12:55 PM,86.0,69.8,58,30.17,10.0,ENE,6.9,-,N/A,,Mostly Cloudy,70,2013-08-25 17:55:00
1:15 PM,86.0,69.8,58,30.16,10.0,East,6.9,-,N/A,,Mostly Cloudy,80,2013-08-25 18:15:00
1:35 PM,86.0,69.8,58,30.16,10.0,ESE,6.9,-,N/A,,Mostly Cloudy,110,2013-08-25 18:35:00
1:55 PM,86.0,69.8,58,30.16,10.0,ESE,8.1,-,N/A,,Mostly Cloudy,120,2013-08-25 18:55:00
2:15 PM,86.0,69.8,58,30.16,10.0,East,6.9,-,N/A,,Mostly Cloudy,80,2013-08-25 19:15:00
2:35 PM,86.0,69.8,58,30.16,10.0,East,6.9,-,N/A,,Mostly Cloudy,100,2013-08-25 19:35:00
2:55 PM,87.8,69.8,55,30.15,10.0,ESE,12.7,-,N/A,,Scattered Clouds,110,2013-08-25 19:55:00
3:15 PM,86.0,69.8,58,30.14,10.0,ESE,10.4,-,N/A,,Mostly Cloudy,120,2013-08-25 20:15:00
3:35 PM,84.2,71.6,66,30.14,10.0,SSE,9.2,-,N/A,,Mostly Cloudy,160,2013-08-25 20:35:00
3:55 PM,82.4,73.4,74,30.15,10.0,SSE,6.9,-,N/A,,Mostly Cloudy,150,2013-08-25 20:55:00
4:15 PM,82.4,73.4,74,30.14,10.0,South,6.9,-,N/A,,Mostly Cloudy,180,2013-08-25 21:15:00
4:35 PM,80.6,71.6,74,30.14,10.0,South,4.6,-,N/A,,Overcast,170,2013-08-25 21:35:00
4:55 PM,82.4,71.6,70,30.14,10.0,SE,5.8,-,N/A,,Mostly Cloudy,140,2013-08-25 21:55:00
5:15 PM,82.4,71.6,70,30.14,10.0,SE,10.4,-,N/A,,Scattered Clouds,140,2013-08-25 22:15:00
5:35 PM,82.4,71.6,70,30.14,10.0,SE,6.9,-,N/A,,Scattered Clouds,140,2013-08-25 22:35:00
5:55 PM,82.4,71.6,70,30.16,7.0,SE,17.3,24.2,N/A,Rain,Light Rain,140,2013-08-25 22:55:00
6:15 PM,75.2,71.6,89,30.15,10.0,SE,9.2,-,0.09,,Overcast,130,2013-08-25 23:15:00
6:35 PM,77.0,71.6,83,30.15,10.0,ESE,6.9,-,0.09,,Scattered Clouds,110,2013-08-25 23:35:00
6:55 PM,77.0,71.6,83,30.15,10.0,ESE,5.8,-,0.09,,Clear,110,2013-08-25 23:55:00
7:15 PM,77.0,71.6,83,30.16,10.0,ESE,6.9,-,N/A,,Clear,110,2013-08-26 00:15:00
7:35 PM,77.0,71.6,83,30.15,10.0,ESE,3.5,-,N/A,,Clear,110,2013-08-26 00:35:00
7:55 PM,77.0,71.6,83,30.16,10.0,Calm,Calm,-,N/A,,Clear,0,2013-08-26 00:55:00
8:15 PM,77.0,71.6,83,30.16,10.0,ENE,3.5,-,N/A,,Clear,60,2013-08-26 01:15:00
8:35 PM,75.2,71.6,89,30.17,10.0,Calm,Calm,-,N/A,,Scattered Clouds,0,2013-08-26 01:35:00
8:55 PM,75.2,71.6,89,30.17,10.0,ENE,3.5,-,N/A,,Scattered Clouds,60,2013-08-26 01:55:00
9:15 PM,75.2,71.6,89,30.18,10.0,Calm,Calm,-,N/A,,Clear,0,2013-08-26 02:15:00
9:35 PM,75.2,71.6,89,30.18,10.0,East,5.8,-,N/A,,Clear,80,2013-08-26 02:35:00
9:55 PM,75.2,71.6,89,30.19,10.0,ENE,4.6,-,N/A,,Clear,70,2013-08-26 02:55:00
10:15 PM,75.2,71.6,89,30.19,10.0,ENE,5.8,-,N/A,,Clear,70,2013-08-26 03:15:00
10:35 PM,75.2,71.6,89,30.19,10.0,East,6.9,-,N/A,,Clear,90,2013-08-26 03:35:00
10:55 PM,75.2,71.6,89,30.19,10.0,East,5.8,-,N/A,,Clear,90,2013-08-26 03:55:00
11:15 PM,75.2,71.6,89,30.19,10.0,East,6.9,-,N/A,,Clear,90,2013-08-26 04:15:00
11:35 PM,75.2,71.6,89,30.18,10.0,East,4.6,-,N/A,,Clear,80,2013-08-26 04:35:00
11:55 PM,75.2,71.6,89,30.18,10.0,East,3.5,-,N/A,,Clear,80,2013-08-26 04:55:00